Location: Peebles
(55.6412°N, 3.1714°W)
Time: 16:40:14
(UTC+01:00)

Cosmos 1934 Rocket - Pass Details

Date: 04 February 2022
Orbit: 938 x 999 km, 83.0° (Epoch: 25 May)

Event Time Altitude Azimuth Distance (km) Brightness Sun altitude
Rises 17:26:14 0° 347° (NNW) 3,634 6.9 -5.0°
Reaches altitude 10° 17:28:45 10° 347° (NNW) 2,679 6.2 -5.3°
Maximum altitude 17:34:51 81° 262° (W) 959 4.1 -6.1°
Drops below altitude 10° 17:40:54 10° 176° (S) 2,648 6.5 -7.0°
Sets 17:43:22 0° 175° (S) 3,590 7.1 -7.3°
